Wind_Speed
31 23 24 21 17 19 19 21 27 27 24 18 17 17 18 15 17 14 10 7 4 8
32 30 25 24 26 18 23 16 26 29 24 22 19 16 16 16 16 9 12 9 9 7
33 33 31 28 28 29 22 23 26 27 26 23 23 24 21 17 18 18 15 12 13 15
34 33 35 29 32 29 30 26 24 29 28 27 26 25 25 23 22 23 22 19 16 9
36 34 34 35 30 33 29 29 35 30 30 29 30 29 29 27 22 22 24 20 16 14
35 35 36 36 36 29 32 33 32 33 35 33 34 33 35 32 27 24 24 21 20 18
37 38 38 35 34 35 34 35 32 34 32 32 33 35 35 29 26 26 23 21 20 18
37 38 35 34 34 35 35 32 32 29 29 30 30 29 28 27 26 26 23 21 21 19
38 37 37 35 34 31 31 30 30 30 30 28 27 27 28 26 24 27 24 22 19 19
37 36 34 33 30 29 29 29 29 28 27 23 23 26 24 31 27 24 23 22 20 19
33 33 32 30 29 28 26 25 22 21 22 25 20 20 21 17 21 26 24 23 22 23
28 29 28 27 24 22 20 18 19 19 21 18 19 20 21 22 26 29 26 21 20 19
26 27 25 23 20 20 20 17 17 19 19 20 24 22 22 23 25 22 23 23 25 25
21 21 20 18 20 16 15 14 17 17 18 21 24 21 19 20 26 22 20 26 24 23
Wind_Direction
208 210 224 221 211 198 204 203 198 194 195 189 200 193 196 192 189 185 206 209 245 301
205 204 210 212 219 208 212 218 197 193 189 193 194 197 208 203 195 175 189 207 219 237
200 204 210 214 216 217 210 211 194 192 188 195 201 205 202 208 198 192 192 215 231 219
202 204 207 212 215 215 216 211 198 191 190 196 202 203 208 208 209 204 200 196 222 234
203 204 206 213 215 212 211 213 208 199 197 198 204 205 209 213 216 203 206 205 202 225
203 203 208 210 213 214 210 210 210 203 201 200 203 204 210 215 213 215 212 208 207 217
202 205 208 210 210 211 212 209 208 205 204 205 205 207 211 210 216 215 214 213 208 211
205 208 210 210 211 211 213 210 211 210 211 211 208 208 206 210 214 219 220 219 219 216
204 206 207 209 211 209 212 211 209 208 211 210 205 210 215 214 216 221 220 223 219 218
201 201 203 205 206 212 209 211 205 211 210 213 206 207 218 222 220 222 226 225 214 223
198 194 196 199 204 205 202 202 203 209 212 204 198 215 230 235 240 226 229 224 219 224
190 183 186 192 193 196 191 195 205 209 203 195 212 217 224 232 232 233 234 228 223 226
176 173 178 180 176 182 190 204 208 201 202 204 218 230 235 229 222 226 228 232 234 234
171 170 171 168 178 186 188 194 194 199 209 222 227 236 238 235 225 230 238 242 242 238
Height
786 789 791 794 795 797 801 804 806 809 813 818 821 822 822 823 823 826 833 834 835 836
778 783 786 788 791 794 797 800 801 804 809 814 819 822 825 826 825 827 829 832 832 833
771 775 779 783 785 789 793 797 797 801 806 810 814 815 818 821 822 820 823 827 830 830
764 768 772 776 779 782 788 790 793 796 800 805 809 812 815 816 818 818 816 816 823 827
756 761 765 769 773 777 781 785 789 792 795 799 803 805 808 812 813 813 815 815 816 821
748 753 756 760 766 771 775 778 781 784 787 790 794 797 799 803 806 809 810 811 812 814
739 743 747 753 759 764 766 770 774 778 782 785 789 792 796 800 803 804 805 807 807 810
730 735 741 747 751 755 760 764 770 774 778 781 785 789 793 797 800 802 803 804 804 804
722 727 732 738 744 749 755 759 764 767 771 774 778 785 789 793 795 797 799 799 800 800
712 718 726 733 739 744 749 754 757 762 767 771 778 780 783 786 790 792 794 795 796 797
705 711 719 727 732 737 742 747 753 758 762 767 772 778 780 783 785 786 788 790 790 791
699 706 714 721 727 733 739 745 750 754 759 764 770 774 776 778 779 781 783 785 787 787
694 702 710 718 725 730 736 742 746 751 756 761 765 769 769 772 774 776 778 780 780 781
694 702 709 716 722 729 735 741 745 749 753 757 761 764 766 767 769 771 774 775 776 776